STARLINK-2731, 48651

Orbit data source: Space-Track

STARLINK-2731, 48651 is a payload satellite owned by SpaceX/Seattle (US) in LEO that was launched on Wed, 26 May 2021 UTC via an FALCON 9 launch vehicle from the Air Force Eastern Test Range (AFETR). Payload-class satellites include a variety of spacecraft equipped with specific instruments for various scientific and technological missions. These include communications satellites like Starlink; space stations such as the ISS; scientific satellites like the Hubble; Earth observation satellites from companies like Planet Labs, Umbra, and HawkEye 360; GPS; miniature CubeSats for education and research; and military/defense satellites.

Loading next visibility...
Identifier
48651, 2021-044P
Orbit
LEO
Country
Flag of USUS
Related business
Manufacturer
SpaceX/Seattle
Mission
Operational Commercial Communications
Bus & Motor
STARLINK, Unknown motor
Mass
260 kg wet, ~248 kg dry
Launch date (UTC)
2021-05-26 (5 years ago)
Launch vehicle
FALCON 9
Launch site
Air Force Eastern Test Range (AFETR)
Object type
Payload
Rocket body
Debris
Shape & HBR
Box + 1 Pan, 10.1 m
Radar Cross Section
13.562 m², Large (>1 m²)

Expand to show TLE details & history
Last TLE update: 3 days ago

TLE from 3 days ago
0 STARLINK-2731
1 48651U 21044P   26170.91750129  .00008118  00000-0  27296-3 0  9992
2 48651  53.1604 358.3622 0000866  75.3185 284.7912 15.31711786279486
Epoch: 2026-06-19T22:01Z
TLE epoch observation values (Epoch: 2026-06-19T22:01:12.111Z)
Latitude
-0.00005°
Longitude
119.9221°
Altitude
471.454 km
Speed
7.632 km/s
True Right ascension
23h 53m 26s
True Declination
0° 00' 00"
Sunlit
Object was in daylight at epoch
Visualization orbit readout
Latitude
Unknown
Longitude
Unknown
Altitude
Unknown
Speed
Unknown
Apparent Right ascension
Unknown
Apparent Declination
Unknown
Sunlit
N/A
Visualization observer readout
Local Sidereal Time
21:40:36
Azimuth
Unknown
Elevation
Unknown
Doppler factor
Unknown
Orbital elements
Apogee altitude
471.555 km
Perigee altitude
470.368 km
Semi-major axis
6,849.098 km
Eccentricity
0.00009
Inclination
53.1604°
RAAN
358.3622°
Arg. of periapsis
75.3185°
True anomaly
284.7816°
Mean anomaly
284.7912°
Eccentric anomaly
284.7864°
Mean motion
3.82907 °/min
Orbital period
94.02 mins
BSTAR
0.00027296
Loading maneuver chart data...
Computing Atmospheric mass density...

Documentation

Showing up to 5 results
|